Location: *
(37.5724°S, 58.0067°E)
Time: 11:02:03
(UTC+00:00)

SME Rocket - Pass Details

Date: 26 September 2020
Orbit: 550 x 2652 km, 99.9° (Epoch: 30 October)

Event Time Altitude Azimuth Distance (km) Brightness Sun altitude
Exits shadow 16:56:02 73° 198° (SSW) 1,078 4.2 -32.4°
Drops below altitude 10° 17:03:08 10° 195° (SSW) 3,523 7.4 -33.6°
Sets 17:06:35 0° 194° (SSW) 4,833 8.2 -34.1°
